This is the latest recevied weather packets stored in our database for station/object KK6MIG-13. If no packets are shown the sender has not sent any weather packets the latest 10 day(s).
| Time | Temp. | Humidity | Pressure | Rain* | Wind** | Luminosity | Snow |
|---|---|---|---|---|---|---|---|
| 1777314910 | 13.89° C | 39% | 1016.4 hPa | 0 mm | - | 881 W/m² | - |
| 1777314849 | 13.89° C | 41% | 1016.4 hPa | 0 mm | - | 882 W/m² | - |
| 1777314789 | 13.89° C | 41% | 1016.4 hPa | 0 mm | - | 886 W/m² | - |
| 1777314729 | 13.89° C | 40% | 1016.4 hPa | 0 mm | - | 886 W/m² | - |
| 1777314663 | 13.89° C | 39% | 1016.4 hPa | 0 mm | - | 891 W/m² | - |
| 1777314602 | 13.89° C | 39% | 1016.4 hPa | 0 mm | - | 891 W/m² | - |
| 1777314552 | 13.89° C | 39% | 1016.4 hPa | 0 mm | - | 953 W/m² | - |
| 1777314546 | 13.89° C | 39% | 1016.4 hPa | 0 mm | - | 907 W/m² | - |
| 1777314424 | 13.89° C | 37% | 1016.4 hPa | 0 mm | - | 877 W/m² | - |
| 1777314420 | 13.89° C | 40% | 1016.3 hPa | 0 mm | - | 877 W/m² | - |
| 1777314295 | 13.89° C | 42% | 1016.3 hPa | 0 mm | - | 877 W/m² | - |
| 1777314236 | 13.89° C | 43% | 1016.4 hPa | 0 mm | - | 881 W/m² | - |
| 1777314176 | 13.89° C | 42% | 1016.3 hPa | 0 mm | - | 872 W/m² | - |
| 1777314124 | 13.89° C | 36% | 1016.3 hPa | 0 mm | - | 868 W/m² | - |
| 1777314120 | 13.89° C | 33% | 1016.3 hPa | 0 mm | - | 867 W/m² | - |
| 1777314116 | 13.89° C | 38% | 1016.3 hPa | 0 mm | - | 872 W/m² | - |
| 1777313928 | 13.89° C | 31% | 1016.3 hPa | 0 mm | - | 877 W/m² | - |
| 1777313868 | 13.89° C | 30% | 1016.3 hPa | 0 mm | - | 882 W/m² | - |
| 1777313807 | 13.33° C | 30% | 1016.3 hPa | 0 mm | - | 898 W/m² | - |
| 1777313742 | 13.33° C | 29% | 1016.3 hPa | 0 mm | - | 891 W/m² | - |
| 1777313682 | 13.33° C | 34% | 1016.1 hPa | 0 mm | - | 882 W/m² | - |
| 1777313622 | 13.33° C | 33% | 1016.3 hPa | 0 mm | - | 884 W/m² | - |
| 1777313562 | 13.33° C | 33% | 1016.1 hPa | 0 mm | - | 881 W/m² | - |
| 1777313501 | 13.33° C | 33% | 1016.3 hPa | 0 mm | - | 800 W/m² | - |
| 1777313436 | 13.89° C | 33% | 1016.1 hPa | 0 mm | - | 800 W/m² | - |
* Rain latest hour (hover to see other rain measurements)
** Current wind speed in m/s (hover to see current wind gust speed)